Location: Siratepeler Tepesi
(39.1042°N, 32.0781°E)
Time: 11:33:29
(UTC+00:00)

Cosmos 1937 Rocket - Pass Details

Date: 11 April 2026
Orbit: 742 x 775 km, 74.0° (Epoch: 14 May)

Event Time Altitude Azimuth Distance (km) Brightness Sun altitude
Rises 17:36:26 0° 197° (SSW) 3,232 6.7 -14.0°
Reaches altitude 10° 17:38:47 10° 198° (SSW) 2,311 5.9 -14.4°
Maximum altitude 17:44:04 89° 288° (WNW) 780 3.5 -15.4°
Drops below altitude 10° 17:49:22 10° 18° (NNE) 2,327 6.1 -16.3°
Sets 17:51:45 0° 19° (NNE) 3,256 6.9 -16.7°
